sat.trackr.live / text

‹ back to catalog

MMS 4

NORAD 40485 · 2015-011D

PAYLOAD ACTIVE UNKNOWN

§ Identity

Operator
Country
US
Launch date
2015-03-13
Launch site
AFETR
Launch vehicle
Mass (kg)
RCS (m²)
2.13

Purposes: science

External: N2YO · Heavens-Above · Gunter

§ Orbital elements

Epoch: 2026-05-25T06:00:02.000160Z

Period
5,079.72 min
Inclination
71.8166°
Eccentricity
0.8339894
Mean motion
0.28348014 rev/d
Perigee alt
9,872.0 km
Apogee alt
173,143.5 km
Semi-major
97,885.9 km
B*
0.0000e+0
RAAN
349.1094°
Arg perigee
166.9312°
Mean anomaly
118.6752°
Rev number
137

§ Raw data

MMS 41 40485U 15011D   26145.25002315 -.00000132  00000+0  00000+0 0  99902 40485  71.8166 349.1094 8339894 166.9312 118.6752  0.28348014  1375

JSON: /api/v1/satellites/40485 · /tle

For live sub-satellite position, see the globe view (requires WebGL).

§ Visibility from observer

Set your observer location to see the next 7 days of passes ≥ 10°. The values pass through the URL so the page stays shareable.

No JS? Fill the form by hand. The geolocation button needs JavaScript.